Flag for Canada Weather past 2 weeks in Steinbach, Manitoba, Canada

Now
56 °F

Cool.


Feels Like: 56 °F
Forecast: 45 / 54 °F
Wind: 2 mph from Southwest

Location: Winnipeg The Forks

Current Time: Apr 27, 2015 at 2:26:57 AM

Latest Report: Apr 27, 2015 at 2:00 AM


Visibility: N/A

Pressure: 30.15 "Hg

Humidity: 68%

Dew point: 45 °F

Location of SteinbachLocation

Historic Weather in Steinbach — Graph

°F

Steinbach temperature yesterday

Maximum temperature yesterday: 69 °F (at 6:00 PM)
Minimum temperature yesterday: 39 °F (at 6:00 AM)
Average temperature yesterday: 55 °F

Past Weeks' High & Low Weather Summary

 TemperatureHumidityPressure
High76 °F (Apr 15, 6:00 PM)93% (Apr 19, 10:00 AM)30.22 "Hg (Apr 19, 10:00 AM)
Low23 °F (Apr 23, 7:00 AM)14% (Apr 13, 1:00 PM)29.39 "Hg (Apr 12, 5:00 AM)
Average47 °F47%29.91 "Hg
* Reported Apr 12 1:00 AM — Apr 27 1:00 AM, Steinbach, Weather by CustomWeather, © 2015

Note: Actual official high and low records may vary slightly from our data, if they occured in-between our weather recording intervals... More about our weather records

Advertising

Steinbach weather history for previous 24 hours

 ConditionsComfort  
Time TempWeatherWind HumidityBarometerVisibility
1:00 AM
Mon, Apr 27
55 °FCool.1 mph70%30.15 "HgN/A
12:00 AM56 °FCool.1 mph68%30.15 "HgN/A
11:00 PM
Sun, Apr 26
58 °FCool.1 mph65%30.14 "HgN/A
10:00 PM59 °FCool.2 mph62%30.14 "HgN/A
9:00 PM61 °FRefreshingly cool.2 mph54%30.13 "HgN/A
8:00 PM63 °FMild.5 mph47%30.11 "HgN/A
7:00 PM68 °FMild.2 mph22%30.09 "HgN/A
6:00 PM69 °FMild.3 mph23%30.10 "HgN/A
5:00 PM68 °FMild.6 mph21%30.10 "HgN/A
4:00 PM67 °FMild.3 mph24%30.10 "HgN/A
3:00 PM67 °FMild.6 mph24%30.12 "HgN/A
2:00 PM65 °FMild.5 mph26%30.12 "HgN/A
1:00 PM63 °FMild.6 mph29%30.13 "HgN/A
12:00 PM61 °FRefreshingly cool.3 mph33%30.13 "HgN/A
11:00 AM57 °FRefreshingly cool.2 mph38%30.13 "HgN/A
10:00 AM55 °FCool.3 mph43%30.12 "HgN/A
9:00 AM51 °FCool.2 mph43%30.12 "HgN/A
8:00 AM46 °FCool.2 mph53%30.10 "HgN/A
7:00 AM39 °FChilly.2 mph68%30.09 "HgN/A
6:00 AM39 °FChilly.3 mph64%30.08 "HgN/A
5:00 AM40 °FChilly.2 mph63%30.07 "HgN/A
4:00 AM42 °FQuite cool.2 mph58%30.06 "HgN/A
3:00 AM43 °FQuite cool.2 mph56%30.05 "HgN/A
2:00 AM45 °FCool.3 mph53%30.04 "HgN/A
Weather by CustomWeather, © 2015

See weather overviewHow to use our weather pages